Погода в Челябинске

Погода в Челябинске : погода сейчас, прогноз погоды и архив. Всё, что Вы хотите узнать о погоде в Челябинске!

Хотите узнать прогноз погоды в Челябинске? Тогда Вам сюда: Погода в Челябинске

Поиск расширенной информации на нашем сайте:

Другие новости

Новости СМИ2

Главная страница сайта

Новости сайта

02.10.2013

Напоминаем, что на нашем новом сайте вы можете получить высокодетализированные прогнозы погоды по пунктам России, СНГ и мира (включающие важные для авиации метеовеличины, такие как направление и скорость ветра, видимость, явления погоды, количество и форма облачности, нижняя и верхняя граница облачности), а также ознакомиться с разнообразными материалами по авиационной метеорологии и подборкой полезных ссылок на эту тему.

Сайт Метеоцентр.Азия посвящён разработке технологий оптимизации авиаметеорологического обслуживания, включая проектирование и перспективное создание нескольких автоматизированных авиаметеорологических систем:
- система выпуска высокодетальных прогностических карт явлений погоды для нижнего воздушного пространства по России и ближнему зарубежью;
- система верификации прогнозов TAF (выпускаемых синоптиками официальных АМСГ РФ и ближнего зарубежья) и AUTOTAF (выпускаемых сайтом Метеоцентр.Азия) - выявление ошибок, онлайн-сопоставление с фактической погодой METAR, автоматическое внесение коррективов в прогнозы при резком отклонении фактической погоды от прогноза, подсчёт оправдываемости прогнозов по элементам и в целом;
- система обработки, анализа и отображения авиаметеорологической информации для применения провайдерами метеорологической информации.

Рекомендуем: лучшие строительные порталы Москвы

Погода в Челябинске - сегодня

Время (UTC), дата Ветер
(°,м/с) 
Видим.   Явления Облачность Т
(°С)
Тd
(°С)
f(%) Тe
(°С)
Pmin
(гПа)
dP
(гПа)
Po
(мм)
O2
(г/м3)
Тmin Tmax R s Состояние
почвы
12 22.02.17 210 (ЮЗ) 5{12}  20000 м    10/0 средняя 
[As trans]
+4 -5 52 +2  1010.3  1.1  736  293           
15 22.02.17 200 (Ю) 2{10}  4000 м    ясно 
+0.7 -5.4 64 1012.6  1.9  737  297    +5.2       
18 22.02.17 200 (Ю) 4000 м    8/0 средняя 
[Ac trans]
-1.2 -5.8 71 -2  1013.4  0.6  738  299           
21 22.02.17 190 (Ю) 4000 м    10/10 300 м кучево-дожд. 
[Cb calv]
-3.1 -7.7 70 -5  1013.7  -0.1  738  301           
00 23.02.17 200 (Ю) 4000 м    10/10 300 м кучево-дожд. 
[Cb calv]
-3.5 -7.1 76 -6  1013.3  -0.3  738  302           
03 23.02.17 190 (Ю) 20000 м    10/10 300 м кучево-дожд. 
[Cb calv]
-7.6 -10 83 -9  1013.7  738  307  -7.6      41  равномерный
сухой снег
100% 
06 23.02.17 190 (Ю) 20000 м    8/0 верхняя 
[Ci fib]
-5 -10.1 67 -7  1013.9  0.4  738  304  -7.6         
09 23.02.17 190 (Ю) 20000 м    9/0 верхняя 
[Ci sp]
-2 -9.9 55 -4  1012.8  -0.7  737  300           
12 23.02.17 170 (Ю) 20000 м    10/0 средняя 
[As trans]
-3.8 -9.9 63 -5  1011.8  -1.2  736  302           
15 23.02.17 190 (Ю) 4000 м    10/0 средняя 
[As trans]
-6.1 -10 74 -8  1011.7  -0.3  736  304    -1.4       
18 23.02.17 190 (Ю) 4000 м    10/0 средняя 
[As trans]
-6.9 -9.8 80 -8  1011.5  -0.3  736  305           
21 23.02.17 200 (Ю) 4000 м    10/10 300 м кучево-дожд. 
[Cb calv]
-6.8 -9.4 82 -9  1011.4  -0.1  736  305           
00 24.02.17 180 (Ю) 4000 м    10/10 300 м кучево-дожд. 
[Cb calv]
-6.6 -9 83 -8  1011.5  0.2  736  305           
03 24.02.17 190 (Ю) 20000 м    10/10 300 м кучево-дожд. 
[Cb calv]
-5.2 -6.5 91 -7  1011.4  736  303  -8.2      39  равномерный
сухой снег
100% 
06 24.02.17 160 (Ю) 20000 м    4/0 верхняя 
[Ci sp]
-3.3 -6.1 81 -3  1011.5  0.3  736  301           
09 24.02.17 150 (ЮВ) 20000 м    8/0 верхняя 
[Ci fib]
-0.1 -4.4 73 -1  1011  -0.1  736  297           
12 24.02.17 150 (ЮВ) 20000 м    9/0 верхняя 
[Ci fib]
-0.4 -4.4 74 -1  1010.8  -0.2  736  297           
15 24.02.17 120 (ЮВ) 10 км    ясно 
-5.8 -8.8 79 -5  1011.8  0.3  736  304    +0.4       
18 24.02.17 190 (Ю) 20000 м    ясно 
-11 -13 85 -11  1012.8  0.4  737  310           
21 24.02.17 190 (Ю) 4000 м    4/0 верхняя 
[Ci fib]
-10.6 -12.6 85 -10  1012.5  -0.2  736  310           
00 25.02.17 170 (Ю) 4000 м    8/8 600 м 
[Sc]
-13.3 -15.3 85 -13  1012.9  0.1  737  313           
03 25.02.17 210 (ЮЗ) 1000 м  дымка  10/0 средняя 
[As trans]
-10.1 -11.4 90 -10  1012  -0.6  736  309  -13.6      39  равномерный
сухой снег
100% 
06 25.02.17 170 (Ю) 10 км  слаб. снег  10/0 средняя 
[As op]
-6.5 -7.8 90 -8  1011.5  736  305           
09 25.02.17 160 (Ю) 10 км  {снег}  10/0 верхняя 
[Ci sp]
-2.5 -5.9 77 -4  1010.2  -0.9  735  300           
12 25.02.17 180 (Ю) 10 км  ливневой снег  10/10 300 м кучево-дожд. 
[Cb calv]
-3.8 -4.8 93 -7  1008.6  -1.6  734  300           
Время (UTC), дата Ветер
(°,м/с) 
Видим.   Явления Облачность Т
(°С)
Тd
(°С)
f(%) Тe
(°С)
Pmin
(гПа)
dP
(гПа)
Po
(мм)
O2
(г/м3)
Тmin Tmax R s Состояние
почвы

Для получения пояснительной информации подведите курсор к названию столбца.

ПОГОДА в Челябинске - архив

Всё, что Вы хотите узнать о погоде в Челябинске - удобно и подробно!

Выберите нужную дату (начиная с 1 января 2015* года) и нажмите кнопку "Найти".
Будут отображены архивные сводки погоды по пункту Челябинск, начиная с указанной даты.


Отображать данные в формате CSV (для использования в таблицах Excel)


Внимание! Наш архив погоды предназначен исключительно для личного некоммерческого использования в познавательных целях. Если Вам необходимы официальные справки о состоянии погоды (для производственных, юридических, коммерческих и т.п. целей), обращайтесь в органы Росгидромета.

*Примечание: данная дата относится к архиву по метеостанциям СССР (Россия, СНГ, Балтия).
Архив по метеостанциям Зарубежной Европы и Азии (кроме Китая) хранится 10 дней, по другим регионам земного шара (Китай, Африка, Америка, Австралия, Океания) - 1 день.

Челябинск - район местоположения метеостанции


Название, широта, долгота, высота метеостанции:
Челябинск (город) 55.2°ш. 61.3°д. 237 м над ур. моря [Российская Федерация]

Дополнительная информация

В oтличие oт бoльшинства пoгoдных сайтoв мы публикуем пoдрoбную метеoинфoрмацию в детальнoм прoфессиoнальнoм фoрмате.

Характеристики температуры и влажнoсти вoздуха измеряются на высoте 2 м в тени вдали oт зданий и деревьев.
Скoрoсть ветра измеряется на высoте 10 м (на урoвне рoста челoвека скoрoсть ветра ниже в 1.5-2 раза). Если метеoстанция нахoдится в гoрoде или в лесу, тo скoрoсть ветра занижена на 2-4 м/с пo сравнению с oткрытым местoм. Скoрoсть ветра над акватoриями крупных рек и oзёр, а также на вершинах хoлмoв на 2-5 м/с выше, чем в oбычных услoвиях.
Атмoсфернoе давление в разных тoчках местнoсти мoжет значительнo oтличаться oт давления на метеoстанции, в зависимoсти oт услoвий рельефа (при пoдъёме на 10 м давление пoнижается примернo на 1 мм рт.ст.).